Location: Dampvalley
(47.9094°N, 6.1967°E)
Time: 15:40:15
(UTC+00:00)

Envisat - Visible Passes

Search period start: 04 December 2022 00:00
Search period end: 14 December 2022 00:00
Orbit: 763 x 765 km, 98.2° (Epoch: 03 December)

Date Brightness Start Highest point End Pass type
(mag) Time Alt. Az. Time Alt. Az. Time Alt. Az.
04 Dec 4.9 03:44:06 10° NNE 03:45:48 21° NNE 03:45:48 21° NNE visible
04 Dec 4.6 05:24:03 10° NNW 05:25:58 17° NNW 05:25:58 17° NNW visible
05 Dec 5.6 03:07:28 10° NNE 03:08:12 14° NE 03:08:12 14° NE visible
05 Dec 4.5 04:46:23 10° N 04:48:23 22° NNW 04:48:23 22° NNW visible
06 Dec 4.8 04:09:08 10° N 04:10:48 21° N 04:10:48 21° N visible
06 Dec 4.9 05:50:03 10° NNW 05:50:58 12° NW 05:50:58 12° NW visible
07 Dec 5.3 03:32:13 10° NNE 03:33:14 16° NNE 03:33:14 16° NNE visible
07 Dec 4.7 05:11:49 10° N 05:13:24 17° NNW 05:13:24 17° NNW visible
07 Dec 6.1 16:32:49 10° WSW 16:34:50 12° W 16:36:51 10° WNW visible
08 Dec 4.7 04:34:19 10° N 04:35:50 19° N 04:35:50 19° N visible
09 Dec 5.1 03:57:09 10° NNE 03:58:16 17° NNE 03:58:16 17° NNE visible
09 Dec 4.9 05:37:33 10° NNW 05:38:27 13° NNW 05:38:27 13° NNW visible
10 Dec 5.7 03:20:22 10° NNE 03:20:43 12° NNE 03:20:43 12° NNE visible
10 Dec 4.8 04:59:39 10° N 05:00:54 16° NNW 05:00:54 16° NNW visible
10 Dec 5.8 16:19:42 10° SW 16:22:42 16° W 16:25:43 10° NW visible
11 Dec 5.0 04:22:16 10° N 04:23:21 16° N 04:23:21 16° N visible
12 Dec 5.4 03:45:13 10° NNE 03:45:48 13° NNE 03:45:48 13° NNE visible
12 Dec 4.9 05:25:13 10° NNW 05:25:59 13° NNW 05:25:59 13° NNW visible
13 Dec 5.0 04:47:31 10° N 04:48:27 15° N 04:48:27 15° N visible
